Anaktuvuk Pass, AK

11:47 AM AKST on January 18, 2017 (GMT -0900)
Anaktuvuk Pass

Weather History for PAKP - January, 2012

Change the Weather History Date:

Saturday, January 7, 2012

  Actual Average Record
Temperature  
Mean Temperature -29 °F -  
Max Temperature -18 °F -2 °F 19 °F (2005)
Min Temperature -40 °F -14 °F -43 °F (1997)
Degree Days  
Heating Degree Days 94    
Moisture  
Dew Point -28 °F    
Average Humidity 63    
Maximum Humidity 63    
Minimum Humidity 63    
Precipitation  
Precipitation 0.00 in - - ()
Sea Level Pressure  
Sea Level Pressure 29.26 in    
Wind  
Wind Speed - (North)    
Max Wind Speed -    
Max Gust Speed -    
Visibility 3 miles    
Events      
Averages and records for this station are not official NWS values.
T = Trace of Precipitation, MM = Missing Value Source: NWS Daily Summary

Daily Weather History Graph

Daily Weather History Graph

Search for Another Location

Airport or City:

Trip Planner

Search our weather history database for the weather conditions in past years. The results will help you decide how hot, cold, wet, or windy it might be!

Date:

Astronomy

Jan. 07, 2012 Rise Set
Actual Time 12:30 PM AKST 1:56 PM AKST
Civil Twilight 10:17 AM AKST 4:08 PM AKST
Nautical Twilight 8:52 AM AKST 5:33 PM AKST
Astronomical Twilight 7:42 AM AKST 6:44 PM AKST
Moon No Moon Rise No Moon Set
Length of Visible Light 5h 50m
Length of Day
1h 26m
Waxing Gibbous, 98% of the Moon is Illuminated
Jan 7
Waxing Gibbous
Jan 8
Full
Jan 16
Last Quarter
Jan 22
New
Jan 30
First Quarter

Hourly Weather History & Observations

Time (AKST) Temp. Dew Point Humidity Pressure Visibility Wind Dir Wind Speed Gust Speed Precip Events Conditions
12:16 AM -18.4 °F -27.4 °F 63% 29.31 in 3.0 mi North - - N/A   Overcast
12:36 AM -20.2 °F -29.2 °F 63% 29.32 in 4.0 mi North - - N/A   Overcast
12:56 AM -20.2 °F - N/A% 29.32 in 4.0 mi North - - N/A   Overcast
1:16 AM -20.2 °F - N/A% 29.33 in 3.0 mi North - - N/A   Overcast
1:36 AM -22.0 °F - N/A% 29.33 in 2.5 mi North - - N/A   Overcast
1:56 AM -23.8 °F - N/A% 29.33 in 4.0 mi North - - N/A   Mostly Cloudy
2:16 AM -22.0 °F - N/A% 29.33 in 5.0 mi North - - N/A   Mostly Cloudy
2:36 AM -22.0 °F - N/A% 29.34 in 5.0 mi North - - N/A   Overcast
2:56 AM -23.8 °F - N/A% 29.33 in 2.5 mi North - - N/A   Scattered Clouds
3:16 AM -23.8 °F - N/A% 29.33 in 5.0 mi North - - N/A   Clear
3:36 AM -25.6 °F - N/A% 29.34 in 3.0 mi North - - N/A   Clear
3:56 AM -25.6 °F - N/A% 29.33 in 4.0 mi North - - N/A   Clear
4:16 AM -25.6 °F - N/A% 29.33 in 5.0 mi North - - N/A   Clear
4:36 AM -25.6 °F - N/A% 29.34 in 5.0 mi North - - N/A   Clear
4:56 AM -27.4 °F - N/A% 29.33 in 5.0 mi North - - N/A   Clear
5:16 AM -27.4 °F - N/A% 29.33 in 4.0 mi North - - N/A   Clear
5:36 AM -27.4 °F - N/A% 29.32 in 2.5 mi North - - N/A   Clear
5:56 AM -29.2 °F - N/A% 29.31 in 2.0 mi North - - N/A   Clear
6:16 AM -29.2 °F - N/A% 29.31 in 2.5 mi North - - N/A   Clear
6:36 AM -29.2 °F - N/A% 29.30 in 2.5 mi North - - N/A   Clear
6:56 AM -29.2 °F - N/A% 29.29 in 2.0 mi North - - N/A   Clear
7:16 AM -31.0 °F - N/A% 29.29 in 2.0 mi North - - N/A   Clear
7:56 AM -29.2 °F - N/A% 29.28 in 0.2 mi North - - N/A   Mostly Cloudy
8:16 AM -29.2 °F - N/A% 29.28 in 2.5 mi North - - N/A   Clear
8:36 AM -31.0 °F - N/A% 29.28 in 3.0 mi North - - N/A   Clear
8:56 AM -31.0 °F - N/A% 29.27 in 3.0 mi North - - N/A   Clear
9:16 AM -32.8 °F - N/A% 29.27 in 2.0 mi North - - N/A   Overcast
9:36 AM -31.0 °F - N/A% 29.26 in 3.0 mi North - - N/A   Mostly Cloudy
9:56 AM -32.8 °F - N/A% 29.26 in 3.0 mi North - - N/A   Partly Cloudy
10:16 AM -32.8 °F - N/A% 29.25 in 4.0 mi North - - N/A   Clear
10:36 AM -32.8 °F - N/A% 29.25 in 7.0 mi North - - N/A   Clear
10:56 AM -32.8 °F - N/A% 29.24 in 7.0 mi North - - N/A   Clear
11:16 AM -32.8 °F - N/A% 29.24 in 5.0 mi North - - N/A   Clear
11:36 AM -32.8 °F - N/A% 29.23 in 5.0 mi North - - N/A   Clear
11:56 AM -34.6 °F - N/A% 29.23 in 0.8 mi North - - N/A   Unknown
12:16 PM -34.6 °F - N/A% 29.22 in 1.2 mi North - - N/A   Clear
12:36 PM -34.6 °F - N/A% 29.22 in 8.0 mi North - - N/A   Clear
12:56 PM -34.6 °F - N/A% 29.21 in 1.8 mi North - - N/A   Clear
1:16 PM -36.4 °F - N/A% 29.21 in 5.0 mi North - - N/A   Clear
1:36 PM -36.4 °F - N/A% 29.21 in 1.2 mi North - - N/A   Clear
1:56 PM -36.4 °F - N/A% 29.20 in 1.0 mi North - - N/A   Clear
2:16 PM -38.2 °F - N/A% 29.19 in 0.8 mi North - - N/A   Mostly Cloudy
2:36 PM -38.2 °F - N/A% 29.19 in 0.5 mi North - - N/A   Scattered Clouds
2:56 PM -36.4 °F - N/A% 29.18 in 0.5 mi North - - N/A   Unknown
3:16 PM -38.2 °F - N/A% 29.18 in 0.5 mi North - - N/A   Unknown
3:36 PM -40.0 °F - N/A% 29.17 in 0.5 mi North - - N/A   Unknown
3:56 PM -38.2 °F - N/A% 29.16 in 0.8 mi North - - N/A   Unknown
4:16 PM -38.2 °F - N/A% 29.15 in 1.2 mi North - - N/A   Clear
4:36 PM -36.4 °F - N/A% 29.15 in 2.0 mi North - - N/A   Clear
4:56 PM -38.2 °F - N/A% 29.14 in 1.0 mi North - - N/A   Clear
5:36 PM -34.6 °F - N/A% 29.13 in 4.0 mi North - - N/A   Clear
5:56 PM -34.6 °F - N/A% 29.13 in 7.0 mi North - - N/A   Clear
6:16 PM -34.6 °F - N/A% 29.12 in 10.0 mi North - - N/A   Clear
6:36 PM -32.8 °F - N/A% 29.12 in 10.0 mi North - - N/A   Clear
6:56 PM -31.0 °F - N/A% 29.11 in 10.0 mi North - - N/A   Clear
7:16 PM -29.2 °F - N/A% 29.11 in 10.0 mi North - - N/A   Clear
7:36 PM -31.0 °F - N/A% 29.11 in 10.0 mi North - - N/A   Clear
7:56 PM -27.4 °F - N/A% 29.10 in 10.0 mi North - - N/A   Clear
8:16 PM -31.0 °F - N/A% 29.10 in 10.0 mi North - - N/A   Clear
8:36 PM -32.8 °F - N/A% 29.10 in 10.0 mi North - - N/A   Clear
8:56 PM -29.2 °F - N/A% 29.09 in 10.0 mi North - - N/A   Clear
9:16 PM -29.2 °F - N/A% 29.09 in 10.0 mi North - - N/A   Clear
9:36 PM -31.0 °F - N/A% 29.09 in 10.0 mi North - - N/A   Clear
9:56 PM -27.4 °F - N/A% 29.09 in 8.0 mi North - - N/A   Clear
10:16 PM -27.4 °F - N/A% 29.08 in 6.0 mi North - - N/A   Clear
10:36 PM -27.4 °F - N/A% 29.09 in 10.0 mi North - - N/A   Clear
10:56 PM -29.2 °F - N/A% 29.09 in 10.0 mi North - - N/A   Mostly Cloudy
11:16 PM -29.2 °F - N/A% 29.09 in 10.0 mi North - - N/A   Overcast
11:36 PM -29.2 °F - N/A% 29.09 in 10.0 mi North - - N/A   Overcast
11:56 PM -29.2 °F - N/A% 29.09 in 10.0 mi North - - N/A   Scattered Clouds